Location: Bremen
(53.0793°N, 8.8017°E)
Time: 21:33:08
(UTC+02:00)

Envisat - Pass Details

Date: 01 March 2024
Orbit: 762 x 764 km, 98.3° (Epoch: 13 April)

Event Time Altitude Azimuth Distance (km) Brightness Sun altitude
Rises 04:38:48 0° 12° (NNE) 3,244 6.7 -23.4°
Reaches altitude 10° 04:41:10 10° 8° (N) 2,314 5.8 -23.1°
Maximum altitude 04:46:07 54° 292° (WNW) 929 3.1 -22.4°
Enters shadow 04:46:31 52° 274° (W) 945 3.1 -22.3°
